, CA

(GMT )
Point Mugu

Weather History for KNTD - February, 2012

Change the Weather History Date:

Tuesday, February 14, 2012

  Actual Average Record
Temperature  
Mean Temperature 48 °F -  
Max Temperature 59 °F 60 °F 82 °F (2015)
Min Temperature 37 °F 44 °F 36 °F (2009)
Degree Days  
Heating Degree Days 17    
Moisture  
Dew Point 41 °F    
Average Humidity 77    
Maximum Humidity 93    
Minimum Humidity 53    
Precipitation  
Precipitation 0.00 in - - ()
Sea Level Pressure  
Sea Level Pressure 30.00 in    
Wind  
Wind Speed 5 mph (NNE)    
Max Wind Speed 12 mph    
Max Gust Speed 53 mph    
Visibility 7 miles    
Events      
Averages and records for this station are not official NWS values.
T = Trace of Precipitation, MM = Missing Value Source: NWS Daily Summary

Daily Weather History Graph

Daily Weather History Graph

Search for Another Location

Airport or City:

Trip Planner

Search our weather history database for the weather conditions in past years. The results will help you decide how hot, cold, wet, or windy it might be!

Date:

Astronomy

Feb. 14, 2012 Rise Set
Actual Time 6:42 AM PST 5:39 PM PST
Civil Twilight 6:17 AM PST 6:04 PM PST
Nautical Twilight 5:47 AM PST 6:34 PM PST
Astronomical Twilight 5:18 AM PST 7:03 PM PST
Moon 12:27 AM PST (2/14) 10:55 AM PST (2/14)
Length of Visible Light 11h 47m
Length of Day
10h 56m
Waning Gibbous, 49% of the Moon is Illuminated
Feb 14
Waning Gibbous
Feb 21
New
Feb 29
First Quarter
Mar 8
Full
Mar 14
Last Quarter

Hourly Weather History & Observations

Time (PST) Temp. Windchill Dew Point Humidity Pressure Visibility Wind Dir Wind Speed Gust Speed Precip Events Conditions
12:54 AM 44.1 °F - 39.9 °F 85% 29.93 in - Calm Calm - N/A   Widespread Dust
1:30 AM - - - N/A% - - North - - N/A   Unknown
1:54 AM 42.1 °F 39.2 °F 39.0 °F 89% 29.93 in - North 4.6 mph - N/A   Widespread Dust
2:54 AM 42.1 °F 39.2 °F 37.9 °F 85% 29.93 in - NNE 4.6 mph - N/A   Widespread Dust
3:54 AM 39.9 °F 36.7 °F 37.0 °F 89% 29.94 in - NE 4.6 mph - N/A   Widespread Dust
4:54 AM 39.0 °F 34.8 °F 36.0 °F 89% 29.94 in - North 5.8 mph - N/A   Widespread Dust
5:54 AM 37.9 °F - 36.0 °F 93% 29.95 in 7.0 mi Calm Calm - N/A   Clear
6:54 AM 37.9 °F 35.5 °F 36.0 °F 93% 29.98 in 7.0 mi NNE 3.5 mph - N/A   Scattered Clouds
7:51 AM 42.8 °F 41.1 °F 39.2 °F 87% 29.99 in - NNE 3.5 mph 52.9 mph N/A   Squalls
7:54 AM 43.0 °F 41.3 °F 39.0 °F 86% 29.99 in 7.0 mi NNE 3.5 mph - N/A   Scattered Clouds
8:54 AM 50.0 °F - 41.0 °F 71% 30.01 in 7.0 mi NNE 3.5 mph - N/A   Scattered Clouds
9:54 AM 54.0 °F - 41.0 °F 62% 30.01 in 7.0 mi Variable 4.6 mph - N/A   Scattered Clouds
10:54 AM 55.0 °F - 41.0 °F 59% 30.03 in 7.0 mi SSW 6.9 mph - N/A   Partly Cloudy
11:54 AM 55.9 °F - 42.1 °F 60% 30.01 in 7.0 mi South 8.1 mph - N/A   Scattered Clouds
12:54 PM 57.0 °F - 42.1 °F 57% 30.00 in 7.0 mi SSW 10.4 mph - N/A   Scattered Clouds
1:54 PM 57.9 °F - 41.0 °F 53% 30.00 in 7.0 mi SW 9.2 mph - N/A   Scattered Clouds
2:54 PM 59.0 °F - 43.0 °F 55% 29.99 in 7.0 mi WSW 9.2 mph - N/A   Scattered Clouds
3:54 PM 57.0 °F - 48.0 °F 72% 30.00 in 7.0 mi WSW 11.5 mph - N/A   Scattered Clouds
4:54 PM 55.9 °F - 48.0 °F 75% 30.00 in 7.0 mi West 9.2 mph 18.4 mph N/A   Scattered Clouds
5:22 PM 55.4 °F - 46.4 °F 72% 30.01 in 7.0 mi West 8.1 mph - N/A   Scattered Clouds
5:54 PM 53.1 °F - 46.9 °F 80% 30.02 in 7.0 mi ESE 6.9 mph - N/A   Scattered Clouds
6:54 PM 53.1 °F - 45.0 °F 74% 30.02 in 7.0 mi SE 11.5 mph - N/A   Scattered Clouds
7:54 PM 52.0 °F - 44.1 °F 74% 30.04 in 7.0 mi SE 6.9 mph - N/A   Scattered Clouds
8:54 PM 48.9 °F - 43.0 °F 80% 30.07 in 7.0 mi NE 4.6 mph - N/A   Scattered Clouds
9:54 PM 46.0 °F 43.9 °F 41.0 °F 83% 30.08 in 7.0 mi ENE 4.6 mph - N/A   Scattered Clouds
10:54 PM 46.0 °F 43.9 °F 42.1 °F 86% 30.08 in 7.0 mi NNE 4.6 mph - N/A   Partly Cloudy
11:54 PM 45.0 °F 41.2 °F 41.0 °F 86% 30.09 in - NNE 6.9 mph - N/A   Clear